Simultaneous Nadir Overpasses (SNOs) Predictions

Prediction of SNOs between LANDSAT-8 and NOAA-19 Satellite Orbit:

Table of predicted SNOs for the next 14.0 days since TLE Epoch: 5/18/2024
Index Date (LANDSAT-8) Time (LANDSAT-8) Lat,Lon (LANDSAT-8) SZA (LANDSAT-8 ) Date (NOAA-19) Time (NOAA-19) Lat,Lon (NOAA-19) SZA (NOAA-19 ) Distance(km) Time Diff (sec)
1 05/20/2024 03:17:25 80.71, 164.51 62.36 05/20/2024 03:17:11 80.71, 164.68 62.37 3.07 14
2 05/22/2024 09:40:34 80.69, 68.48 61.87 05/22/2024 09:40:08 80.69, 68.38 61.84 2.00 26
3 05/22/2024 10:30:00 -80.72,-123.56 118.09 05/22/2024 10:31:10 -80.72,-123.47 118.05 1.74 70
4 05/24/2024 16:03:43 80.68, -27.48 61.41 05/24/2024 16:03:04 80.69, -27.32 61.42 3.04 39
5 05/24/2024 16:53:09 -80.71, 140.49 118.54 05/24/2024 16:54:07 -80.71, 140.49 118.51 0.39 58
6 05/26/2024 22:26:51 80.67,-123.38 61.00 05/26/2024 22:26:01 80.66,-123.47 60.97 1.73 50
7 05/26/2024 23:16:17 -80.70, 44.61 118.95 05/26/2024 23:17:03 -80.70, 44.68 118.92 1.52 46
8 05/29/2024 04:49:58 80.66, 140.79 60.63 05/29/2024 04:48:57 80.65, 140.63 60.58 3.05 61
9 05/29/2024 05:39:24 -80.69, -51.21 119.32 05/29/2024 05:39:59 -80.69, -51.25 119.31 0.75 35
10 05/31/2024 11:13:04 80.66, 45.02 60.30 05/31/2024 11:11:52 80.66, 44.98 60.26 1.19 72



Historial Predications of SNOs between LANDSAT-8 and NOAA-19
